If you wish to contribute or participate in the discussions about articles you are invited to join SKYbrary as a registered user

 Actions

Ahvaz International Airport

From SKYbrary Wiki

OIAW
Airport
ICAO: OIAW – IATA: AWZ
Summary
Name Ahvaz International Airport
Region Middle East
Territory Iran IR.gif
Location Ahvaz, Khuzestan
Serving Ahvas
Elevation 20.117 m <br />66 ft20.117 m <br />
Coordinates 31° 20' 15.00" N, 48° 45' 37.00" E
Runways
Designator Length Width Surface ROPS
12/30 3398 m11,148.294 ft <br /> 45 m147.638 ft <br /> ASP yes/yes


METAR
Observation OIAW 280330Z 09002KT CAVOK 10/04 Q1015
Station Ahwaz
Date/Time 28 February 2021 03:30:00
Wind direction 90°
Wind speed 02 kts
Lowest cloud amount clouds and visibility OK
Temperature 10°C
Dew point 4°C
Humidity 66%
QNH 1015 hPa
Weather condition n/a

Ahvaz (or Ahwaz) airport serves the city of Ahvaz, west Iran.

Climatology

Hot Desert Climate (Köppen climate classification BWh)

Maps

Terrain

Loading map...

Airport Layout

Loading map...


Accidents & Serious Incidents at or in vicinity of OIAW

None on SKYbrary